CLX4326 WMKK-VHHH

Flight info

Callsign CLX4326
Flight time N/A
Altitude 35000
Route KIMAT2D KIMAT Y344 VPK L629 DOLOX M771 DUDIS/K0939F350 M771 DOSUT/N0504F350 M771 DULOP Q1 CARSO V551 BETTY
Aircraft B748/H-SDE3FGHIM1M2RWXY/LB1

Departure

Time 2026-05-05 12:18
Airport Kuala Lumpur International Airport (WMKK)

Arrival

Time N/A
Airport Hong Kong International Airport (VHHH)
Time Latitude Longitude Altitude Speed Heading
2026-05-05 11:52 2.73713 101.71181 83 ft 0 kts 145°
2026-05-05 12:05 2.73724 101.71172 88 ft 2 kts 147°
2026-05-05 12:06 2.73738 101.71163 87 ft 2 kts 146°
2026-05-05 12:06 2.73752 101.71154 87 ft 2 kts 146°
2026-05-05 12:06 2.73766 101.71146 87 ft 2 kts 191°
2026-05-05 12:06 2.73781 101.71150 86 ft 2 kts 212°
2026-05-05 12:07 2.73795 101.71159 87 ft 2 kts 223°
2026-05-05 12:07 2.73806 101.71171 87 ft 2 kts 240°
2026-05-05 12:07 2.73816 101.71184 85 ft 2 kts 240°
2026-05-05 12:07 2.73818 101.71188 86 ft 0 kts 234°
2026-05-05 12:10 2.73817 101.71187 83 ft 1 kts 235°
2026-05-05 12:10 2.73797 101.71157 86 ft 10 kts 236°
2026-05-05 12:11 2.73744 101.71079 88 ft 18 kts 237°
2026-05-05 12:11 2.73661 101.70954 88 ft 25 kts 236°
2026-05-05 12:11 2.73550 101.70792 69 ft 31 kts 236°
2026-05-05 12:11 2.73470 101.70729 66 ft 12 kts 189°
2026-05-05 12:12 2.73410 101.70748 63 ft 10 kts 146°
2026-05-05 12:12 2.73326 101.70805 62 ft 19 kts 146°
2026-05-05 12:12 2.73197 101.70893 59 ft 27 kts 146°
2026-05-05 12:12 2.73025 101.71010 57 ft 31 kts 146°
2026-05-05 12:13 2.72844 101.71131 54 ft 32 kts 146°
2026-05-05 12:13 2.72663 101.71253 57 ft 31 kts 146°
2026-05-05 12:13 2.72485 101.71372 59 ft 30 kts 146°
2026-05-05 12:13 2.72356 101.71448 59 ft 8 kts 173°
2026-05-05 12:14 2.72312 101.71435 60 ft 7 kts 212°
2026-05-05 12:14 2.72276 101.71417 61 ft 8 kts 185°
2026-05-05 12:14 2.72188 101.71456 57 ft 20 kts 144°
2026-05-05 12:14 2.72043 101.71554 61 ft 28 kts 146°
2026-05-05 12:15 2.71872 101.71669 54 ft 30 kts 146°
2026-05-05 12:15 2.71701 101.71785 53 ft 30 kts 146°
2026-05-05 12:15 2.71526 101.71903 54 ft 30 kts 146°
2026-05-05 12:15 2.71448 101.71941 60 ft 4 kts 186°
2026-05-05 12:16 2.71425 101.71929 60 ft 5 kts 218°
2026-05-05 12:16 2.71398 101.71890 59 ft 10 kts 237°
2026-05-05 12:16 2.71362 101.71823 58 ft 7 kts 261°
2026-05-05 12:16 2.71379 101.71778 57 ft 10 kts 307°
2026-05-05 12:17 2.71410 101.71751 60 ft 0 kts 325°
2026-05-05 12:17 2.71483 101.71699 56 ft 50 kts 324°
2026-05-05 12:17 2.72053 101.71319 57 ft 143 kts 326°
2026-05-05 12:18 2.73051 101.70648 296 ft 191 kts 326°
2026-05-05 12:18 2.74147 101.69922 1207 ft 191 kts 326°
2026-05-05 12:18 2.75318 101.69146 1897 ft 211 kts 325°
2026-05-05 12:18 2.76529 101.68237 2596 ft 227 kts 316°
2026-05-05 12:19 2.77606 101.67025 3398 ft 241 kts 309°
2026-05-05 12:19 2.78668 101.65626 4390 ft 258 kts 307°
2026-05-05 12:19 2.79760 101.64122 5472 ft 273 kts 308°
2026-05-05 12:19 2.80980 101.62640 6714 ft 279 kts 312°
2026-05-05 12:20 2.82275 101.61166 7964 ft 284 kts 312°
2026-05-05 12:20 2.83571 101.59645 9231 ft 290 kts 310°
2026-05-05 12:20 2.84396 101.58654 10023 ft 293 kts 310°
2026-05-05 12:20 2.86218 101.56524 11308 ft 315 kts 317°
2026-05-05 12:21 2.88113 101.55312 12132 ft 335 kts 340°
2026-05-05 12:21 2.89627 101.54898 12661 ft 349 kts 350°
2026-05-05 12:21 2.92120 101.54600 13632 ft 363 kts 356°
2026-05-05 12:21 2.94653 101.54425 14684 ft 372 kts 358°
2026-05-05 12:22 2.97256 101.54518 15814 ft 377 kts 12°
2026-05-05 12:22 2.99751 101.55384 16991 ft 381 kts 30°
2026-05-05 12:22 3.01869 101.56955 18123 ft 385 kts 47°
2026-05-05 12:22 3.03512 101.59085 19093 ft 390 kts 59°
2026-05-05 12:23 3.04881 101.61464 20086 ft 396 kts 62°
2026-05-05 12:23 3.06217 101.63869 21037 ft 403 kts 60°
2026-05-05 12:23 3.07772 101.66258 22003 ft 411 kts 55°
2026-05-05 12:23 3.09463 101.68562 22926 ft 417 kts 55°
2026-05-05 12:24 3.11155 101.70980 23784 ft 423 kts 57°
2026-05-05 12:24 3.12769 101.73449 24557 ft 429 kts 58°
2026-05-05 12:24 3.14416 101.75934 25301 ft 435 kts 57°
2026-05-05 12:24 3.16145 101.78450 26044 ft 440 kts 56°
2026-05-05 12:25 3.17898 101.81002 26788 ft 445 kts 57°
2026-05-05 12:25 3.19624 101.83564 27506 ft 450 kts 57°
2026-05-05 12:25 3.21391 101.86193 28200 ft 456 kts 57°
2026-05-05 12:25 3.23156 101.88829 28883 ft 460 kts 60°
2026-05-05 12:26 3.24511 101.91707 29571 ft 463 kts 72°
2026-05-05 12:26 3.25271 101.94865 30204 ft 467 kts 83°
2026-05-05 12:26 3.25386 101.98122 30777 ft 470 kts 95°
2026-05-05 12:26 3.24838 102.01356 31503 ft 469 kts 104°
2026-05-05 12:27 3.24063 102.04498 32294 ft 467 kts 104°
2026-05-05 12:27 3.23262 102.07614 33067 ft 466 kts 105°
2026-05-05 12:27 3.22440 102.10761 33843 ft 465 kts 105°
2026-05-05 12:27 3.21642 102.13871 34458 ft 464 kts 104°
2026-05-05 12:28 3.20846 102.17012 34773 ft 462 kts 104°
2026-05-05 12:28 3.20058 102.20101 34809 ft 462 kts 104°
2026-05-05 12:28 3.18461 102.26305 34820 ft 458 kts 104°
2026-05-05 12:29 3.16914 102.32478 34824 ft 458 kts 100°
2026-05-05 12:29 3.16649 102.35666 34820 ft 459 kts 88°
2026-05-05 12:29 3.17023 102.38851 34821 ft 459 kts 79°
2026-05-05 12:30 3.18338 102.45090 34816 ft 460 kts 78°
2026-05-05 12:30 3.19665 102.51345 34818 ft 460 kts 79°
2026-05-05 12:31 3.20982 102.57603 34813 ft 460 kts 78°
2026-05-05 12:31 3.22306 102.63856 34818 ft 460 kts 79°
2026-05-05 12:32 3.23624 102.70110 34819 ft 460 kts 79°
2026-05-05 12:32 3.24947 102.76371 34820 ft 460 kts 79°
2026-05-05 12:33 3.26269 102.82641 34828 ft 459 kts 79°
2026-05-05 12:33 3.27592 102.88913 34820 ft 459 kts 79°
2026-05-05 12:34 3.28908 102.95158 34828 ft 460 kts 79°
2026-05-05 12:34 3.30224 103.01398 34828 ft 459 kts 79°
2026-05-05 12:35 3.31539 103.07640 34824 ft 459 kts 79°
2026-05-05 12:35 3.32860 103.13912 34825 ft 459 kts 79°
2026-05-05 12:36 3.34171 103.20141 34824 ft 458 kts 79°
2026-05-05 12:36 3.35486 103.26385 34829 ft 458 kts 79°
2026-05-05 12:37 3.36794 103.32602 34829 ft 458 kts 79°
2026-05-05 12:37 3.38105 103.38830 34831 ft 458 kts 78°
2026-05-05 12:38 3.39081 103.41903 34843 ft 460 kts 66°
2026-05-05 12:38 3.40622 103.44662 34842 ft 461 kts 56°
2026-05-05 12:38 3.44363 103.49930 34836 ft 461 kts 55°
2026-05-05 12:39 3.48076 103.55131 34835 ft 461 kts 56°
2026-05-05 12:39 3.51805 103.60379 34837 ft 461 kts 56°
2026-05-05 12:40 3.55538 103.65615 34841 ft 461 kts 56°
2026-05-05 12:40 3.59256 103.70843 34841 ft 461 kts 56°
2026-05-05 12:41 3.62983 103.76038 34843 ft 462 kts 55°
2026-05-05 12:41 3.66794 103.81240 34853 ft 462 kts 55°
2026-05-05 12:42 3.70564 103.86454 34856 ft 462 kts 55°
2026-05-05 12:42 3.74347 103.91647 34845 ft 463 kts 55°
2026-05-05 12:43 3.78112 103.96838 34851 ft 463 kts 55°
2026-05-05 12:43 3.81894 104.02043 34851 ft 463 kts 55°
2026-05-05 12:44 3.85670 104.07245 34852 ft 463 kts 55°
2026-05-05 12:44 3.89474 104.12474 34852 ft 462 kts 55°
2026-05-05 12:45 3.93257 104.17636 34854 ft 462 kts 55°
2026-05-05 12:45 3.97051 104.22837 34852 ft 463 kts 54°
2026-05-05 12:46 4.00854 104.28038 34851 ft 463 kts 54°
2026-05-05 12:46 4.04666 104.33258 34851 ft 463 kts 54°
2026-05-05 12:47 4.08454 104.38444 34855 ft 463 kts 54°
2026-05-05 12:47 4.12259 104.43656 34855 ft 463 kts 55°
2026-05-05 12:48 4.16072 104.48879 34854 ft 463 kts 54°
2026-05-05 12:48 4.19877 104.54091 34854 ft 463 kts 54°
2026-05-05 12:49 4.23659 104.59275 34856 ft 463 kts 54°
2026-05-05 12:49 4.27455 104.64476 34855 ft 463 kts 55°
2026-05-05 12:50 4.31264 104.69699 34852 ft 463 kts 55°
2026-05-05 12:50 4.35061 104.74905 34852 ft 463 kts 55°
2026-05-05 12:51 4.38856 104.80108 34851 ft 463 kts 55°
2026-05-05 12:51 4.42665 104.85316 34849 ft 463 kts 54°
2026-05-05 12:52 4.46479 104.90529 34851 ft 463 kts 54°
2026-05-05 12:52 4.50290 104.95743 34850 ft 464 kts 54°
2026-05-05 12:53 4.54076 105.00921 34852 ft 464 kts 54°
2026-05-05 12:53 4.57912 105.06170 34852 ft 464 kts 54°
2026-05-05 12:54 4.63618 105.13977 34853 ft 464 kts 54°
2026-05-05 12:55 4.67442 105.19212 34850 ft 464 kts 54°
2026-05-05 12:55 4.71243 105.24416 34849 ft 464 kts 54°
2026-05-05 12:56 4.75047 105.29625 34849 ft 463 kts 54°
2026-05-05 12:56 4.78833 105.34811 34846 ft 464 kts 55°
2026-05-05 12:57 4.83328 105.39393 34869 ft 466 kts 34°
2026-05-05 12:57 4.88775 105.42943 34863 ft 467 kts 33°
2026-05-05 12:58 4.94224 105.46482 34865 ft 466 kts 34°
2026-05-05 12:58 4.99667 105.50032 34864 ft 467 kts 34°
2026-05-05 12:59 5.05115 105.53574 34865 ft 467 kts 34°
2026-05-05 12:59 5.10534 105.57106 34865 ft 466 kts 34°
2026-05-05 13:00 5.18682 105.62413 34865 ft 464 kts 34°
2026-05-05 13:01 5.29476 105.69446 34862 ft 463 kts 34°
2026-05-05 13:01 5.34878 105.72967 34862 ft 463 kts 34°
2026-05-05 13:02 5.40267 105.76481 34865 ft 463 kts 34°
2026-05-05 13:02 5.45676 105.80008 34862 ft 463 kts 34°
2026-05-05 13:03 5.51078 105.83532 34857 ft 462 kts 34°
2026-05-05 13:03 5.56427 105.87021 34858 ft 461 kts 34°
2026-05-05 13:04 5.61827 105.90545 34859 ft 461 kts 34°
2026-05-05 13:04 5.67185 105.94042 34859 ft 461 kts 34°
2026-05-05 13:05 5.72573 105.97559 34861 ft 462 kts 34°
2026-05-05 13:05 5.77956 106.01075 34864 ft 462 kts 33°
2026-05-05 13:06 5.83340 106.04591 34865 ft 462 kts 34°
2026-05-05 13:06 5.88727 106.08110 34870 ft 461 kts 33°
2026-05-05 13:07 5.94066 106.11599 34871 ft 461 kts 33°
2026-05-05 13:07 5.99439 106.15110 34871 ft 461 kts 33°
2026-05-05 13:08 6.04824 106.18631 34872 ft 461 kts 33°
2026-05-05 13:08 6.10198 106.22144 34872 ft 460 kts 33°
2026-05-05 13:09 6.15532 106.25633 34870 ft 460 kts 34°
2026-05-05 13:09 6.20901 106.29146 34870 ft 460 kts 34°
2026-05-05 13:10 6.26271 106.32660 34872 ft 459 kts 33°
2026-05-05 13:10 6.31633 106.36170 34875 ft 460 kts 33°
2026-05-05 13:11 6.36973 106.39666 34881 ft 460 kts 33°
2026-05-05 13:11 6.42374 106.43203 34881 ft 460 kts 33°
2026-05-05 13:12 6.47709 106.46697 34879 ft 460 kts 33°
2026-05-05 13:12 6.53084 106.50219 34880 ft 460 kts 33°
2026-05-05 13:13 6.58460 106.53742 34877 ft 461 kts 33°
2026-05-05 13:13 6.63828 106.57262 34877 ft 461 kts 33°
2026-05-05 13:14 6.69170 106.60765 34879 ft 460 kts 33°
2026-05-05 13:14 6.74541 106.64287 34879 ft 461 kts 33°
2026-05-05 13:15 6.79888 106.67795 34877 ft 461 kts 33°
2026-05-05 13:15 6.85255 106.71317 34877 ft 461 kts 34°
2026-05-05 13:16 6.90622 106.74841 34874 ft 461 kts 33°
2026-05-05 13:16 6.95968 106.78350 34873 ft 457 kts 33°
2026-05-05 13:17 7.01267 106.81831 34878 ft 456 kts 33°
2026-05-05 13:17 7.06571 106.85321 34877 ft 456 kts 33°
2026-05-05 13:18 7.11004 106.88238 34875 ft 455 kts 33°
2026-05-05 13:18 7.16307 106.91727 34875 ft 455 kts 34°
2026-05-05 13:19 7.21616 106.95222 34882 ft 455 kts 34°
2026-05-05 13:19 7.26915 106.98711 34883 ft 456 kts 34°
2026-05-05 13:20 7.32194 107.02188 34879 ft 453 kts 34°
2026-05-05 13:20 7.37479 107.05671 34882 ft 453 kts 34°
2026-05-05 13:21 7.42730 107.09131 34882 ft 452 kts 34°
2026-05-05 13:21 7.47993 107.12601 34882 ft 452 kts 34°
2026-05-05 13:22 7.53228 107.16054 34880 ft 452 kts 33°
2026-05-05 13:22 7.58490 107.19524 34880 ft 451 kts 34°
2026-05-05 13:23 7.63748 107.22994 34879 ft 451 kts 33°
2026-05-05 13:23 7.69010 107.26466 34883 ft 451 kts 34°
2026-05-05 13:24 7.74232 107.29914 34888 ft 451 kts 34°
2026-05-05 13:24 7.79507 107.33398 34885 ft 451 kts 34°
2026-05-05 13:25 7.84771 107.36876 34885 ft 451 kts 34°
2026-05-05 13:25 7.90026 107.40348 34886 ft 451 kts 34°
2026-05-05 13:26 7.95250 107.43801 34891 ft 452 kts 34°
2026-05-05 13:26 8.00491 107.47267 34887 ft 452 kts 34°
2026-05-05 13:27 8.05750 107.50746 34887 ft 452 kts 34°
2026-05-05 13:27 8.11008 107.54225 34886 ft 451 kts 33°
2026-05-05 13:28 8.16240 107.57687 34890 ft 451 kts 34°
2026-05-05 13:28 8.21475 107.61153 34894 ft 451 kts 34°
2026-05-05 13:29 8.26724 107.64629 34893 ft 450 kts 34°
2026-05-05 13:29 8.31939 107.68084 34892 ft 450 kts 34°
2026-05-05 13:30 8.37187 107.71563 34897 ft 451 kts 34°
2026-05-05 13:30 8.42436 107.75042 34898 ft 452 kts 34°
2026-05-05 13:31 8.47710 107.78539 34896 ft 452 kts 34°
2026-05-05 13:31 8.52973 107.82032 34896 ft 452 kts 34°
2026-05-05 13:32 8.58223 107.85515 34897 ft 452 kts 34°
2026-05-05 13:32 8.63446 107.88982 34899 ft 452 kts 34°
2026-05-05 13:33 8.68709 107.92478 34893 ft 452 kts 34°
2026-05-05 13:33 8.73962 107.95966 34894 ft 452 kts 34°
2026-05-05 13:34 8.79223 107.99462 34893 ft 452 kts 34°
2026-05-05 13:34 8.84453 108.02939 34893 ft 452 kts 34°
2026-05-05 13:35 8.89724 108.06443 34895 ft 452 kts 34°
2026-05-05 13:35 8.94977 108.09937 34901 ft 452 kts 34°
2026-05-05 13:36 9.00242 108.13441 34899 ft 453 kts 34°
2026-05-05 13:36 9.05452 108.16910 34903 ft 449 kts 34°
2026-05-05 13:37 9.10661 108.20378 34904 ft 449 kts 34°
2026-05-05 13:37 9.15870 108.23849 34902 ft 449 kts 34°
2026-05-05 13:38 9.21068 108.27312 34907 ft 448 kts 34°
2026-05-05 13:38 9.26302 108.30801 34909 ft 448 kts 34°
2026-05-05 13:39 9.31503 108.34269 34906 ft 448 kts 34°
2026-05-05 13:39 9.36712 108.37744 34903 ft 447 kts 34°
2026-05-05 13:40 9.41887 108.41197 34906 ft 448 kts 34°
2026-05-05 13:40 9.47108 108.44683 34905 ft 448 kts 34°
2026-05-05 13:41 9.52283 108.48135 34907 ft 449 kts 34°
2026-05-05 13:41 9.57484 108.51608 34906 ft 448 kts 34°
2026-05-05 13:42 9.62684 108.55080 34908 ft 447 kts 34°
2026-05-05 13:42 9.67867 108.58542 34910 ft 447 kts 34°
2026-05-05 13:43 9.73103 108.62042 34910 ft 454 kts 34°
2026-05-05 13:43 9.78389 108.65574 34912 ft 454 kts 34°
2026-05-05 13:44 9.83684 108.69117 34910 ft 455 kts 34°
2026-05-05 13:44 9.88946 108.72637 34914 ft 455 kts 34°
2026-05-05 13:45 9.94231 108.76175 34915 ft 455 kts 34°
2026-05-05 13:45 9.99510 108.79710 34914 ft 454 kts 34°
2026-05-05 13:46 10.04772 108.83230 34917 ft 455 kts 34°
2026-05-05 13:46 10.10037 108.86754 34919 ft 454 kts 34°
2026-05-05 13:47 10.15333 108.90300 34916 ft 454 kts 34°
2026-05-05 13:47 10.20590 108.93821 34918 ft 455 kts 34°
2026-05-05 13:48 10.25904 108.97382 34913 ft 455 kts 34°
2026-05-05 13:48 10.31148 109.00898 34925 ft 455 kts 34°
2026-05-05 13:49 10.36427 109.04438 34923 ft 455 kts 34°
2026-05-05 13:49 10.41695 109.07973 34920 ft 453 kts 34°
2026-05-05 13:50 10.46947 109.11499 34920 ft 452 kts 34°
2026-05-05 13:50 10.52194 109.15021 34920 ft 452 kts 34°
2026-05-05 13:51 10.57438 109.18544 34923 ft 452 kts 33°
2026-05-05 13:51 10.62690 109.22073 34924 ft 452 kts 34°
2026-05-05 13:52 10.67944 109.25606 34926 ft 453 kts 34°
2026-05-05 13:52 10.73189 109.29134 34931 ft 453 kts 33°
2026-05-05 13:53 10.78439 109.32667 34924 ft 453 kts 33°
2026-05-05 13:53 10.83686 109.36199 34924 ft 453 kts 33°
2026-05-05 13:54 10.88932 109.39732 34927 ft 452 kts 33°
2026-05-05 13:54 10.94163 109.43256 34924 ft 452 kts 33°
2026-05-05 13:55 10.99417 109.46798 34928 ft 452 kts 33°
2026-05-05 13:55 11.04677 109.50345 34928 ft 452 kts 33°
2026-05-05 13:56 11.09904 109.53871 34928 ft 452 kts 33°
2026-05-05 13:56 11.15164 109.57365 34932 ft 452 kts 32°
2026-05-05 13:57 11.20448 109.60825 34922 ft 452 kts 33°
2026-05-05 13:57 11.25704 109.64305 34926 ft 451 kts 33°
2026-05-05 13:58 11.30986 109.67780 34928 ft 451 kts 33°
2026-05-05 13:58 11.36256 109.71263 34928 ft 452 kts 33°
2026-05-05 13:59 11.44136 109.76464 34927 ft 452 kts 33°
2026-05-05 14:00 11.51196 109.81128 34931 ft 452 kts 33°
2026-05-05 14:00 11.57370 109.85211 34932 ft 452 kts 33°
2026-05-05 14:01 11.62645 109.88700 34932 ft 452 kts 33°
2026-05-05 14:01 11.67923 109.92192 34933 ft 452 kts 33°
2026-05-05 14:02 11.73214 109.95696 34931 ft 455 kts 33°
2026-05-05 14:02 11.78520 109.99209 34931 ft 455 kts 33°
2026-05-05 14:03 11.83831 110.02729 34931 ft 455 kts 33°
2026-05-05 14:03 11.89136 110.06245 34931 ft 455 kts 33°
2026-05-05 14:04 11.94442 110.09765 34932 ft 455 kts 33°
2026-05-05 14:04 11.99755 110.13291 34932 ft 455 kts 33°
2026-05-05 14:05 12.05036 110.16797 34934 ft 456 kts 32°
2026-05-05 14:05 12.10351 110.20327 34934 ft 455 kts 33°
2026-05-05 14:06 12.15661 110.23856 34934 ft 455 kts 32°
2026-05-05 14:06 12.20976 110.27390 34934 ft 455 kts 32°
2026-05-05 14:07 12.26273 110.30913 34932 ft 455 kts 32°
2026-05-05 14:07 12.31595 110.34455 34932 ft 455 kts 32°
2026-05-05 14:08 12.36865 110.37973 34935 ft 457 kts 33°
2026-05-05 14:08 12.42114 110.41638 34933 ft 457 kts 32°
2026-05-05 14:09 12.47404 110.45308 34939 ft 457 kts 33°
2026-05-05 14:09 12.52640 110.48975 34937 ft 455 kts 33°
2026-05-05 14:10 12.57852 110.52604 34933 ft 453 kts 33°
2026-05-05 14:10 12.63056 110.56244 34933 ft 453 kts 33°
2026-05-05 14:11 12.68250 110.59869 34935 ft 455 kts 33°
2026-05-05 14:11 12.73483 110.63529 34935 ft 455 kts 33°
2026-05-05 14:12 12.78717 110.67188 34936 ft 456 kts 33°
2026-05-05 14:12 12.83948 110.70847 34939 ft 456 kts 33°
2026-05-05 14:13 12.89194 110.74519 34939 ft 455 kts 33°
2026-05-05 14:13 12.94422 110.78181 34939 ft 455 kts 33°
2026-05-05 14:14 12.99641 110.81838 34938 ft 456 kts 33°
2026-05-05 14:14 13.04873 110.85505 34938 ft 456 kts 33°
2026-05-05 14:15 13.10115 110.89181 34935 ft 456 kts 33°
2026-05-05 14:15 13.15357 110.92860 34936 ft 456 kts 33°
2026-05-05 14:16 13.20576 110.96525 34939 ft 456 kts 33°
2026-05-05 14:16 13.25815 111.00205 34940 ft 456 kts 33°
2026-05-05 14:17 13.31033 111.03872 34935 ft 456 kts 33°
2026-05-05 14:17 13.35416 111.06954 34936 ft 457 kts 33°
2026-05-05 14:18 13.41517 111.11247 34941 ft 457 kts 33°
2026-05-05 14:18 13.45912 111.14341 34939 ft 457 kts 32°
2026-05-05 14:19 13.51135 111.18019 34936 ft 457 kts 32°
2026-05-05 14:19 13.56383 111.21718 34936 ft 457 kts 32°
2026-05-05 14:20 13.61623 111.25412 34941 ft 457 kts 33°
2026-05-05 14:20 13.66877 111.29118 34939 ft 458 kts 32°
2026-05-05 14:21 13.72136 111.32831 34936 ft 459 kts 32°
2026-05-05 14:21 13.77391 111.36542 34936 ft 458 kts 32°
2026-05-05 14:22 13.82644 111.40254 34941 ft 458 kts 32°
2026-05-05 14:22 13.87895 111.43967 34938 ft 458 kts 32°
2026-05-05 14:23 13.93147 111.47682 34935 ft 458 kts 32°
2026-05-05 14:23 13.98403 111.51402 34936 ft 459 kts 32°
2026-05-05 14:24 14.03668 111.55101 34934 ft 458 kts 32°
2026-05-05 14:24 14.08937 111.58808 34935 ft 459 kts 32°
2026-05-05 14:25 14.14206 111.62518 34934 ft 459 kts 32°
2026-05-05 14:25 14.19475 111.66230 34934 ft 459 kts 32°
2026-05-05 14:26 14.24745 111.69944 34940 ft 459 kts 32°
2026-05-05 14:26 14.30014 111.73659 34941 ft 459 kts 32°
2026-05-05 14:27 14.35276 111.77373 34940 ft 459 kts 32°
2026-05-05 14:27 14.40541 111.81090 34937 ft 459 kts 32°
2026-05-05 14:28 14.45807 111.84810 34936 ft 459 kts 32°
2026-05-05 14:28 14.51067 111.88528 34937 ft 459 kts 32°
2026-05-05 14:29 14.56327 111.92248 34944 ft 459 kts 32°
2026-05-05 14:29 14.61583 111.95968 34944 ft 458 kts 32°
2026-05-05 14:30 14.66834 111.99686 34946 ft 457 kts 32°
2026-05-05 14:30 14.72085 112.03404 34946 ft 458 kts 31°
2026-05-05 14:31 14.77355 112.07092 34946 ft 458 kts 31°
2026-05-05 14:31 14.82618 112.10795 34945 ft 458 kts 31°
2026-05-05 14:32 14.87886 112.14497 34948 ft 459 kts 31°
2026-05-05 14:32 14.93151 112.18202 34945 ft 458 kts 31°
2026-05-05 14:33 14.98384 112.21885 34947 ft 458 kts 31°
2026-05-05 14:33 15.03653 112.25596 34947 ft 458 kts 31°
2026-05-05 14:34 15.08918 112.29307 34944 ft 458 kts 31°
2026-05-05 14:34 15.14179 112.33017 34944 ft 457 kts 31°
2026-05-05 14:35 15.19439 112.36728 34945 ft 458 kts 32°
2026-05-05 14:35 15.24703 112.40446 34947 ft 458 kts 32°
2026-05-05 14:36 15.29967 112.44164 34944 ft 458 kts 32°
2026-05-05 14:36 15.35231 112.47886 34947 ft 458 kts 32°
2026-05-05 14:37 15.40495 112.51610 34947 ft 458 kts 32°
2026-05-05 14:37 15.45760 112.55336 34950 ft 458 kts 32°
2026-05-05 14:38 15.51023 112.59065 34946 ft 458 kts 31°
2026-05-05 14:38 15.56288 112.62795 34946 ft 458 kts 31°
2026-05-05 14:39 15.61545 112.66524 34948 ft 458 kts 31°
2026-05-05 14:39 15.66805 112.70256 34948 ft 458 kts 31°
2026-05-05 14:40 15.72068 112.73993 34946 ft 458 kts 31°
2026-05-05 14:40 15.77323 112.77727 34946 ft 458 kts 31°
2026-05-05 14:41 15.82540 112.81436 34941 ft 457 kts 31°
2026-05-05 14:41 15.87783 112.85166 34935 ft 457 kts 31°
2026-05-05 14:42 15.93059 112.88922 34935 ft 457 kts 31°
2026-05-05 14:42 15.98293 112.92651 34938 ft 457 kts 31°
2026-05-05 14:43 16.03499 112.96361 34940 ft 457 kts 31°
2026-05-05 14:43 16.08738 113.00098 34939 ft 457 kts 31°
2026-05-05 14:44 16.13974 113.03836 34941 ft 456 kts 31°
2026-05-05 14:44 16.19206 113.07572 34944 ft 456 kts 31°
2026-05-05 14:45 16.24435 113.11309 34941 ft 456 kts 31°
2026-05-05 14:45 16.29663 113.15048 34942 ft 456 kts 31°
2026-05-05 14:46 16.34889 113.18788 34945 ft 456 kts 31°
2026-05-05 14:46 16.40115 113.22529 34958 ft 456 kts 31°
2026-05-05 14:47 16.45344 113.26277 34954 ft 456 kts 31°
2026-05-05 14:47 16.50567 113.30022 34954 ft 456 kts 31°
2026-05-05 14:48 16.55754 113.33743 34954 ft 456 kts 31°
2026-05-05 14:48 16.60988 113.37501 34959 ft 455 kts 31°
2026-05-05 14:49 16.66215 113.41256 34953 ft 455 kts 31°
2026-05-05 14:49 16.71410 113.44991 34951 ft 458 kts 31°
2026-05-05 14:50 16.76651 113.48763 34956 ft 457 kts 31°
2026-05-05 14:50 16.81887 113.52532 34953 ft 458 kts 31°
2026-05-05 14:51 16.87126 113.56306 34959 ft 458 kts 31°
2026-05-05 14:51 16.92372 113.60088 34953 ft 458 kts 31°
2026-05-05 14:52 16.97588 113.63851 34956 ft 458 kts 31°
2026-05-05 14:52 17.02837 113.67640 34955 ft 459 kts 31°
2026-05-05 14:53 17.08111 113.71406 34957 ft 459 kts 30°
2026-05-05 14:53 17.13397 113.75161 34954 ft 459 kts 31°
2026-05-05 14:54 17.18640 113.78907 34953 ft 455 kts 30°
2026-05-05 14:54 17.23871 113.82632 34952 ft 455 kts 31°
2026-05-05 14:55 17.29095 113.86365 34952 ft 455 kts 31°
2026-05-05 14:55 17.34323 113.90096 34952 ft 455 kts 31°
2026-05-05 14:56 17.39556 113.93838 34954 ft 455 kts 31°
2026-05-05 14:56 17.44756 113.97558 34952 ft 455 kts 31°
2026-05-05 14:57 17.49993 114.01306 34954 ft 455 kts 31°
2026-05-05 14:57 17.55223 114.05053 34954 ft 455 kts 31°
2026-05-05 14:58 17.60447 114.08804 34961 ft 454 kts 31°
2026-05-05 14:58 17.65663 114.12537 34962 ft 453 kts 31°
2026-05-05 14:59 17.70866 114.16276 34963 ft 453 kts 31°
2026-05-05 14:59 17.76071 114.20014 34959 ft 453 kts 31°
2026-05-05 15:00 17.80391 114.23121 34959 ft 453 kts 31°
2026-05-05 15:00 17.86479 114.27498 34967 ft 454 kts 31°
2026-05-05 15:01 17.91695 114.31255 34962 ft 455 kts 31°
2026-05-05 15:01 17.96879 114.34989 34961 ft 455 kts 31°
2026-05-05 15:02 18.02119 114.38767 34957 ft 455 kts 31°
2026-05-05 15:02 18.07310 114.42513 34963 ft 454 kts 31°
2026-05-05 15:03 18.12523 114.46276 34966 ft 454 kts 31°
2026-05-05 15:03 18.17731 114.50041 34965 ft 454 kts 31°
2026-05-05 15:04 18.23007 114.53635 34971 ft 450 kts 21°
2026-05-05 15:04 18.25931 114.54791 34971 ft 445 kts 10°
2026-05-05 15:04 18.28915 114.55482 34967 ft 443 kts
2026-05-05 15:05 18.37970 114.57450 34968 ft 443 kts
2026-05-05 15:06 18.44007 114.58774 34977 ft 443 kts
2026-05-05 15:06 18.49024 114.59868 34967 ft 443 kts
2026-05-05 15:07 18.55057 114.61188 34965 ft 443 kts
2026-05-05 15:07 18.61116 114.62514 34965 ft 443 kts
2026-05-05 15:08 18.67128 114.63831 34969 ft 443 kts
2026-05-05 15:08 18.73141 114.65149 34966 ft 443 kts
2026-05-05 15:09 18.79163 114.66470 34967 ft 442 kts
2026-05-05 15:09 18.85207 114.67797 34967 ft 442 kts
2026-05-05 15:10 18.91205 114.69115 34967 ft 442 kts
2026-05-05 15:10 18.97257 114.70445 34967 ft 442 kts
2026-05-05 15:11 19.03266 114.70775 34974 ft 433 kts 351°
2026-05-05 15:11 19.09293 114.70267 34970 ft 432 kts 351°
2026-05-05 15:12 19.15273 114.69760 34972 ft 432 kts 351°
2026-05-05 15:12 19.21259 114.69256 34972 ft 432 kts 351°
2026-05-05 15:13 19.27245 114.68749 34970 ft 432 kts 351°
2026-05-05 15:13 19.33229 114.68244 34971 ft 432 kts 351°
2026-05-05 15:14 19.39196 114.67739 34975 ft 432 kts 350°
2026-05-05 15:14 19.45193 114.67231 34976 ft 432 kts 350°
2026-05-05 15:15 19.51217 114.66720 34972 ft 432 kts 350°
2026-05-05 15:15 19.57167 114.66216 34973 ft 432 kts 350°
2026-05-05 15:16 19.63189 114.65704 34980 ft 432 kts 350°
2026-05-05 15:16 19.69191 114.65195 34976 ft 432 kts 350°
2026-05-05 15:17 19.75165 114.64687 34977 ft 431 kts 350°
2026-05-05 15:17 19.81137 114.64179 34977 ft 431 kts 350°
2026-05-05 15:18 19.87102 114.63671 34981 ft 431 kts 350°
2026-05-05 15:18 19.93072 114.63162 34979 ft 431 kts 350°
2026-05-05 15:19 19.99081 114.62650 34990 ft 431 kts 350°
2026-05-05 15:19 20.05029 114.62142 34979 ft 430 kts 350°
2026-05-05 15:20 20.11002 114.61632 34976 ft 430 kts 350°
2026-05-05 15:20 20.16965 114.61123 34976 ft 430 kts 350°